Starlink 1648

operational
NORAD ID: 46533 Int'l Des: 2020-070 Owner: SPXS Country: US Constellation: starlink
LEOCIRCULARSTARLINK_TYPE

About Starlink 1648

Description loading...

Live Position

Loading 3D Globe...

Upcoming Passes

Altitude History

Altitude vs Time

uPlot chart will show altitude changes over time

Two-Line Element Set

1 46533U 20070B 25257.27838329 .00003512 00000-0 25458-3 0 9991
2 46533 53.0523 248.5605 0001332 87.0780 273.0361 15.06397559272913
Epoch: Sep 14, 2025 • Age: 38 hours

Current Status

Altitude 560.5 km
Velocity 7.58 km/s
Sub-Earth Point -38.66°S, 100.41°W
Launch Date Oct 6, 2020
Age 4.9 years
Type internet

Technical Details

Classification Payload
Mass 260.00 kg
Dry Mass 248.00 kg
Total Mass 260.00 kg
Length 0.20 m
Diameter 2.80 m
Span 9.00 m
Shape Box + pan
Manufacturer SPXS
Bus Type Starlink
Phase Status In Orbit
Owner/State SPXS/US

Large Constellations

Loading constellations...